Погода в Туките

Россия / Республика Дагестан     43°29′29″N   46°37′07″E
темп.,
°C
ветер,
м/с
пор.,
м/с
влажн.,
%
обл.,
%
осадки,
мм/ч
давл.,
гПа
погр.,
м
7 мая, пт
пт700:00+10вюв6138223 0.0 1014312
03:00+9вюв4989100 0.0 1014247
06:00+10юв3688100 0.0 1015232
09:00+16вюв226291 0.0 1016592
12:00+20юв115198 0.0 10161177
15:00+21св124919 0.0 10161390
18:00+17в57715 0.0 1017260
21:00+11вюв358681 0.0 101969
8 мая, сб
сб800:00+11юв228858 0.0 101926
03:00+11юв22875 0.0 101812
06:00+13в24830 0.0 101896
09:00+20в57565 0.0 1017610
12:00+23в89425 0.0 10151021
15:00+21в91150100 0.0 1013761
18:00+16в8146943 0.0 1013409
21:00+13в51083100 0.0 1013295
9 мая, вс
вс900:00+12вюв479332 0.1 1011154
03:00+11вюв359714 0.1 1010114
06:00+13вюв2395100 0.0 1009162
09:00+18ссз1173100 0.0 1009540
12:00+22зсз3358100 0.0 10081024
15:00+25сз454966 0.0 10071414
18:00+15з121772100 0.0 1013996
21:00+9з111789100 1.6 10191065
10 мая, пн
пн1000:00+9з111782100 0.8 10211222
03:00+9з91581100 0.8 10201071
06:00+9зюз101581100 0.0 10211061
09:00+8з81385100 2.9 10221159
12:00+8зюз71087100 3.1 1023780
15:00+15зюз455235 3.1 10201616
18:00+14ююз34623 0.0 1020103
21:00+9ссв23726 0.0 102031
11 мая, вт
вт1100:00+8юв11720 0.0 102010
03:00+7ю11774 0.0 102010
06:00+9ссв01745 0.0 102162
09:00+15в466110 0.0 10211278
12:00+16в565699 0.1 10201237
15:00+16в555598 0.1 10201480
18:00+14в58715 0.0 1021506
21:00+10в47875 0.0 1021108